Flag for Canada Weather past 2 weeks in Markham, Ontario, Canada

50 °F

Light rain. Overcast.

Feels Like: 46 °F
Forecast: 46 / 61 °F
Wind: 12 mph from Southeast

Location: Toronto Buttonville

Current Time: Oct 9, 2015 at 12:23:08 AM

Latest Report: Oct 8, 2015 at 11:00 PM

Visibility: 7 mi

Pressure: 29.96 "Hg

Humidity: 88%

Dew point: 46 °F

Location of MarkhamLocation

Historic Weather in Markham — Graph


Markham temperature yesterday

Maximum temperature yesterday: 57 °F (at 1:00 PM)
Minimum temperature yesterday: 41 °F (at 8:00 AM)
Average temperature yesterday: 50 °F

Past Weeks' High & Low Weather Summary

High73 °F (Sep 24, 2:00 PM)100% (Sep 24, 7:00 AM)30.49 "Hg (Sep 24, 7:00 AM)
Low39 °F (Oct 1, 6:00 AM)34% (Oct 1, 5:00 PM)29.93 "Hg (Sep 29, 6:00 AM)
Average57 °F72%30.24 "Hg
* Reported Sep 23 11:00 PM — Oct 8 11:00 PM, Markham, Weather by CustomWeather, © 2015

Note: Actual official high and low records may vary slightly from our data, if they occured in-between our weather recording intervals... More about our weather records


Markham weather history for previous 24 hours

Time TempWeatherWind HumidityBarometerVisibility
11:00 PM
Thu, Oct 8
50 °FLight rain. Overcast.12 mph88%29.96 "Hg7 mi
10:00 PM50 °FLight rain. Overcast.10 mph82%30.00 "Hg10 mi
9:00 PM52 °FLight rain. Overcast.12 mph77%30.02 "Hg12 mi
8:00 PM54 °FOvercast.13 mph58%30.03 "Hg15 mi
7:00 PM54 °FMostly cloudy.8 mph67%30.05 "Hg15 mi
6:00 PM55 °FPartly sunny.9 mph59%30.06 "Hg15 mi
5:00 PM57 °FBroken clouds.13 mph55%30.08 "Hg15 mi
4:00 PM55 °FPartly sunny.10 mph59%30.09 "Hg15 mi
3:00 PM57 °FPartly sunny.9 mph55%30.11 "Hg15 mi
2:00 PM57 °FPartly sunny.10 mph63%30.14 "Hg15 mi
1:00 PM57 °FScattered clouds.13 mph63%30.16 "Hg15 mi
12:00 PM55 °FPassing clouds.12 mph63%30.19 "Hg15 mi
11:00 AM54 °FScattered clouds.13 mph67%30.19 "Hg15 mi
10:00 AM50 °FPassing clouds.9 mph67%30.19 "Hg15 mi
9:00 AM48 °FPartly sunny.6 mph66%30.20 "Hg15 mi
8:00 AM41 °FPassing clouds.3 mph81%30.20 "Hg15 mi
7:00 AM43 °FPassing clouds.3 mph76%30.19 "Hg15 mi
6:00 AM43 °FPassing clouds.3 mph81%30.19 "Hg15 mi
5:00 AM43 °FPassing clouds.3 mph87%30.16 "Hg15 mi
4:00 AM43 °FPassing clouds.3 mph87%30.16 "Hg15 mi
3:00 AM45 °FClear.2 mph87%30.16 "Hg15 mi
2:00 AM45 °FClear.5 mph93%30.16 "Hg15 mi
1:00 AM46 °FClear.5 mph93%30.15 "Hg15 mi
12:00 AM48 °FClear.5 mph87%30.14 "Hg15 mi
Weather by CustomWeather, © 2015

See weather overviewHow to use our weather pages